CGYQG CYXU-CYXU

Flight info

Callsign CGYQG
Flight time 0h 2m
Altitude 1900
Route VFR CIRCUTS
Aircraft C172

Departure

Time 2026-04-25 03:09
Airport London International Airport (CYXU)

Arrival

Time 2026-04-25 03:11
Airport London International Airport (CYXU)
Time Latitude Longitude Altitude Speed Heading
2026-04-25 03:05 43.03724 -81.16284 903 ft 0 kts 347°
2026-04-25 03:07 43.03725 -81.16285 903 ft 3 kts 345°
2026-04-25 03:07 43.03815 -81.16214 903 ft 34 kts 75°
2026-04-25 03:08 43.03896 -81.15734 1002 ft 58 kts 81°
2026-04-25 03:08 43.03979 -81.15129 1118 ft 71 kts 81°
2026-04-25 03:08 43.04097 -81.14429 1203 ft 80 kts 79°
2026-04-25 03:08 43.04227 -81.13681 1383 ft 81 kts 80°
2026-04-25 03:09 43.04422 -81.12950 1563 ft 86 kts 54°
2026-04-25 03:09 43.05063 -81.12852 1656 ft 109 kts 354°
2026-04-25 03:09 43.05824 -81.13240 1645 ft 122 kts 341°
2026-04-25 03:09 43.06485 -81.13993 1782 ft 128 kts 303°
2026-04-25 03:10 43.06501 -81.15135 1901 ft 120 kts 233°
2026-04-25 03:10 43.05986 -81.16073 1733 ft 131 kts 221°
2026-04-25 03:10 43.05411 -81.16714 1527 ft 83 kts 201°
2026-04-25 03:10 43.04949 -81.16846 1421 ft 63 kts 145°
2026-04-25 03:11 43.04660 -81.16491 1377 ft 49 kts 92°
2026-04-25 03:11 43.04779 -81.15908 1379 ft 76 kts 78°
2026-04-25 03:11 43.04893 -81.15409 1388 ft 85 kts 73°
2026-04-25 03:11 43.05369 -81.14965 1561 ft 105 kts
2026-04-25 03:12 43.05880 -81.15638 1653 ft 115 kts 267°
2026-04-25 03:12 43.05145 -81.16576 1483 ft 123 kts 189°
2026-04-25 03:12 43.04488 -81.16366 1151 ft 88 kts 138°
2026-04-25 03:12 43.04175 -81.16083 1307 ft 74 kts 133°
2026-04-25 03:13 43.03654 -81.15393 1470 ft 87 kts 136°
2026-04-25 03:13 43.03230 -81.15209 1466 ft 103 kts 172°
2026-04-25 03:13 43.02554 -81.15659 1505 ft 123 kts 224°
2026-04-25 03:13 43.02190 -81.16743 1598 ft 125 kts 249°
2026-04-25 03:14 43.02297 -81.17850 1723 ft 123 kts 314°
2026-04-25 03:14 43.03027 -81.18409 1696 ft 122 kts 352°
2026-04-25 03:14 43.03607 -81.17970 1465 ft 85 kts 79°
2026-04-25 03:14 43.03686 -81.17323 1141 ft 69 kts 82°
2026-04-25 03:15 43.03771 -81.16672 998 ft 70 kts 80°
2026-04-25 03:15 43.03844 -81.16108 907 ft 53 kts 80°
2026-04-25 03:15 43.03901 -81.15700 903 ft 51 kts 82°
2026-04-25 03:15 43.03992 -81.15162 1059 ft 61 kts 77°
2026-04-25 03:16 43.04123 -81.14570 1233 ft 67 kts 79°
2026-04-25 03:16 43.04498 -81.14164 1458 ft 89 kts 14°
2026-04-25 03:16 43.05160 -81.14409 1579 ft 105 kts 346°
2026-04-25 03:16 43.05789 -81.14947 1696 ft 113 kts 300°
2026-04-25 03:17 43.05704 -81.15941 1826 ft 109 kts 231°
2026-04-25 03:17 43.05266 -81.16840 1894 ft 116 kts 226°
2026-04-25 03:17 43.04802 -81.17746 1982 ft 119 kts 228°
2026-04-25 03:17 43.04308 -81.18637 2039 ft 119 kts 221°
2026-04-25 03:18 43.03830 -81.19532 2122 ft 121 kts 257°
2026-04-25 03:18 43.03928 -81.20648 2246 ft 120 kts 303°
2026-04-25 03:18 43.04613 -81.21107 2360 ft 108 kts 16°
2026-04-25 03:18 43.04989 -81.20427 2205 ft 99 kts 108°
2026-04-25 03:19 43.04389 -81.19941 1735 ft 100 kts 165°
2026-04-25 03:19 43.03873 -81.19842 1500 ft 61 kts 154°
2026-04-25 03:19 43.03529 -81.19560 1448 ft 69 kts 115°
2026-04-25 03:19 43.03467 -81.18824 1405 ft 87 kts 84°
2026-04-25 03:20 43.03568 -81.18038 1285 ft 66 kts 81°
2026-04-25 03:20 43.03628 -81.17562 1176 ft 49 kts 83°
2026-04-25 03:20 43.03726 -81.17059 1044 ft 58 kts 78°
2026-04-25 03:20 43.03779 -81.16451 985 ft 87 kts 73°
2026-04-25 03:21 43.03904 -81.15670 902 ft 68 kts 81°
2026-04-25 03:21 43.04002 -81.14994 929 ft 87 kts 79°
2026-04-25 03:21 43.04138 -81.14174 1140 ft 89 kts 75°
2026-04-25 03:21 43.04333 -81.13330 1312 ft 99 kts 77°
2026-04-25 03:22 43.04154 -81.12476 1461 ft 97 kts 149°
2026-04-25 03:22 43.03589 -81.12125 1635 ft 91 kts 174°
2026-04-25 03:22 43.02962 -81.11877 1720 ft 89 kts 195°
2026-04-25 03:22 43.02578 -81.12378 1724 ft 85 kts 258°
2026-04-25 03:23 43.02513 -81.13209 1726 ft 89 kts 259°
2026-04-25 03:23 43.02375 -81.14017 1715 ft 86 kts 252°
2026-04-25 03:23 43.02172 -81.14798 1664 ft 91 kts 255°
2026-04-25 03:23 43.02018 -81.15586 1746 ft 85 kts 255°
2026-04-25 03:24 43.01851 -81.16368 1770 ft 86 kts 252°
2026-04-25 03:24 43.01688 -81.17186 1771 ft 89 kts 259°
2026-04-25 03:24 43.01820 -81.17964 1942 ft 90 kts 292°
2026-04-25 03:24 43.02364 -81.18494 2046 ft 103 kts 325°
2026-04-25 03:25 43.03084 -81.18687 1857 ft 100 kts 338°
2026-04-25 03:25 43.03578 -81.18229 1582 ft 106 kts 78°
2026-04-25 03:25 43.03671 -81.17297 1201 ft 97 kts 99°
2026-04-25 03:25 43.03812 -81.16355 963 ft 102 kts 78°
2026-04-25 03:26 43.03924 -81.15548 901 ft 64 kts 79°
2026-04-25 03:26 43.03991 -81.15084 903 ft 43 kts 78°
2026-04-25 03:26 43.04039 -81.14829 903 ft 34 kts 78°
2026-04-25 03:26 43.04057 -81.14556 904 ft 20 kts 99°
2026-04-25 03:27 43.03970 -81.14456 903 ft 15 kts 162°
2026-04-25 03:27 43.03888 -81.14414 903 ft 11 kts 160°
2026-04-25 03:27 43.03835 -81.14427 903 ft 8 kts 223°